Tracking 19792 objects as of 16-Jul-2019
HD Live streaming from Space Station
objects crossing your sky now

COSMOS 530

Track COSMOS 530 now!
10-day predictions
COSMOS 530 is classified as:


NORAD ID: 6265
Int'l Code: 1972-087C
Perigee: 1,339.1 km
Apogee: 1,474.8 km
Inclination: 74.0 °
Period: 113.8 minutes
Semi major axis: 7777 km
RCS: 0.7215 m2 (medium)
Launch date: November 1, 1972
Source: Commonwealth of Independent States (former USSR) (CIS)
Launch site: PLESETSK MISSILE AND SPACE COMPLEX (PKMTR)
aabbcc
Your satellite tracking list
Your tracking list is empty




NASA's NSSDC Master Catalog

Two Line Element Set (TLE):
1  6265U 72087C   19196.88944598 -.00000036 +00000-0 -10228-3 0  9991
2  6265 074.0341 157.7058 0087234 334.8398 084.1099 12.65625010157704
Source of the keplerian elements: AFSPC